| time (UTC) | temp C | wind direction | speed KPH | gust KPH | rain 1hr cm | rain 24hr cm | rain mn cm | humidity % | barometer mb |
| 20260503223005 | 15 | 248 | 0.0 | 16.1 | 0.00 | 0.00 | 0.00 | 44 | 1023.0 |
| 20260503221505 | 15 | 203 | 0.0 | 16.1 | 0.00 | 0.00 | 0.00 | 43 | 1023.0 |
| 20260503220005 | 16 | 203 | 0.0 | 16.1 | 0.00 | 0.00 | 0.00 | 43 | 1023.0 |
| 20260503204505 | 16 | 248 | 0.0 | 16.1 | 0.00 | 0.00 | 0.00 | 42 | 1023.0 |
| 20260503203005 | 16 | 248 | 0.0 | 16.1 | 0.00 | 0.00 | 0.00 | 41 | 1023.0 |
| 20260503201505 | 17 | 158 | 0.0 | 16.1 | 0.00 | 0.00 | 0.00 | 41 | 1023.0 |
| 20260503200005 | 17 | 158 | 0.0 | 16.1 | 0.00 | 0.00 | 0.00 | 40 | 1023.0 |
| 20260503194505 | 18 | 158 | 0.0 | 16.1 | 0.00 | 0.00 | 0.00 | 40 | 1023.0 |
| 20260503193005 | 18 | 158 | 0.0 | 16.1 | 0.00 | 0.00 | 0.00 | 38 | 1023.0 |
| 20260503191505 | 19 | 158 | 0.0 | 16.1 | 0.00 | 0.00 | 0.00 | 36 | 1023.0 |
| 20260503190005 | 18 | 158 | 0.0 | 16.1 | 0.00 | 0.00 | 0.00 | 38 | 1023.0 |
| 20260503184505 | 19 | 158 | 0.0 | 16.1 | 0.00 | 0.00 | 0.00 | 40 | 1022.0 |
| 20260503183005 | 20 | 158 | 0.0 | 16.1 | 0.00 | 0.00 | 0.00 | 40 | 1022.0 |
| 20260503181505 | 20 | 158 | 0.0 | 16.1 | 0.00 | 0.00 | 0.00 | 40 | 1022.0 |
| 20260503180005 | 21 | 158 | 0.0 | 16.1 | 0.00 | 0.00 | 0.00 | 40 | 1022.0 |
| 20260503174505 | 21 | 158 | 0.0 | 16.1 | 0.00 | 0.00 | 0.00 | 40 | 1022.0 |
| 20260503173005 | 21 | 158 | 0.0 | 16.1 | 0.00 | 0.00 | 0.00 | 40 | 1022.0 |
| 20260503171505 | 22 | 158 | 0.0 | 16.1 | 0.00 | 0.00 | 0.00 | 40 | 1022.0 |
| 20260503081505 | 20 | 68 | 0.0 | 1.6 | 0.00 | 0.00 | 0.00 | 37 | 1027.0 |
| 20260503071505 | 17 | 45 | 0.0 | 1.6 | 0.00 | 0.00 | 0.00 | 38 | 1027.0 |
| 20260503054505 | 12 | 225 | 0.0 | 0.0 | 0.00 | 0.00 | 0.00 | 39 | 1027.0 |
| 20260503053005 | 11 | 225 | 0.0 | 0.0 | 0.00 | 0.00 | 0.00 | 39 | 1027.0 |
| 20260503051505 | 10 | 225 | 0.0 | 0.0 | 0.00 | 0.00 | 0.00 | 37 | 1027.0 |
| 20260503050005 | 10 | 225 | 0.0 | 0.0 | 0.00 | 0.00 | 0.00 | 36 | 1027.0 |
| 20260503044505 | 10 | 225 | 0.0 | 133.6 | 0.00 | 0.00 | 0.00 | 36 | 1027.0 |
| 20260503043005 | 10 | 225 | 0.0 | 133.6 | 0.00 | 0.00 | 0.00 | 36 | 1027.0 |
| 20260503041505 | 8 | 225 | 0.0 | 133.6 | 0.00 | 0.00 | 0.00 | 35 | 1027.0 |
| 20260503040005 | 8 | 225 | 0.0 | 133.6 | 0.00 | 0.00 | 0.00 | 35 | 1027.0 |
| 20260503034505 | 9 | 225 | 0.0 | 133.6 | 0.00 | 0.00 | 0.00 | 35 | 1027.0 |
| 20260503033005 | 9 | 225 | 0.0 | 133.6 | 0.00 | 0.00 | 0.00 | 35 | 1027.0 |
| 20260503031505 | 8 | 225 | 0.0 | 133.6 | 0.00 | 0.00 | 0.00 | 35 | 1027.0 |
| 20260503030005 | 8 | 225 | 0.0 | 133.6 | 0.00 | 0.00 | 0.00 | 35 | 1027.0 |
| 20260503024505 | 8 | 225 | 0.0 | 133.6 | 0.00 | 0.00 | 0.00 | 36 | 1027.0 |
| 20260503023005 | 8 | 225 | 0.0 | 133.6 | 0.00 | 0.00 | 0.00 | 38 | 1027.0 |
| 20260503021505 | 9 | 225 | 0.0 | 133.6 | 0.00 | 0.00 | 0.00 | 43 | 1027.0 |
| 20260503020005 | 10 | 225 | 0.0 | 133.6 | 0.00 | 0.00 | 0.00 | 43 | 1027.0 |
| 20260503014505 | 10 | 225 | 0.0 | 133.6 | 0.00 | 0.00 | 0.00 | 43 | 1027.0 |
| 20260503013005 | 9 | 180 | 0.0 | 133.6 | 0.00 | 0.00 | 0.00 | 43 | 1027.0 |
| 20260503011505 | 10 | 180 | 0.0 | 133.6 | 0.00 | 0.00 | 0.00 | 42 | 1027.0 |
| 20260503010005 | 10 | 180 | 0.0 | 133.6 | 0.00 | 0.00 | 0.00 | 42 | 1027.0 |
| 20260503004505 | 10 | 180 | 0.0 | 133.6 | 0.00 | 0.00 | 0.00 | 42 | 1028.0 |
| 20260503003005 | 11 | 180 | 0.0 | 133.6 | 0.00 | 0.00 | 0.00 | 42 | 1028.0 |
| 20260503001505 | 11 | 180 | 0.0 | 133.6 | 0.00 | 0.00 | 0.00 | 42 | 1028.0 |
| 20260503000005 | 11 | 180 | 0.0 | 133.6 | 0.00 | 0.00 | 0.00 | 42 | 1028.0 |
| 20260502234505 | 11 | 180 | 0.0 | 133.6 | 0.00 | 0.00 | 0.00 | 41 | 1028.0 |
| 20260502233005 | 11 | 180 | 0.0 | 133.6 | 0.00 | 0.00 | 0.00 | 41 | 1028.0 |
| 20260502231505 | 12 | 180 | 0.0 | 133.6 | 0.00 | 0.00 | 0.00 | 41 | 1029.0 |
| 20260502230005 | 12 | 180 | 0.0 | 133.6 | 0.00 | 0.00 | 0.00 | 41 | 1029.0 |
| 20260502224505 | 12 | 180 | 0.0 | 133.6 | 0.00 | 0.00 | 0.00 | 40 | 1029.0 |